Location: Gesvres
(49.0440°N, 2.8518°E)
Time: 16:05:30
(UTC+00:00)

PAYLOAD B - Visible Passes

Search period start: 30 September 2023 00:00
Search period end: 10 October 2023 00:00
Orbit: 848 x 871 km, 99.1° (Epoch: 30 September)

Date Brightness Start Highest point End Pass type
(mag) Time Alt. Az. Time Alt. Az. Time Alt. Az.
30 Sep 5.1 19:19:50 10° S 19:25:12 49° W 19:30:36 10° NNW visible
01 Oct 4.8 19:10:30 10° S 19:15:59 58° WSW 19:21:28 10° NNW visible
02 Oct 4.5 19:01:13 10° S 19:06:45 69° WSW 19:12:18 10° NNW visible
02 Oct 7.1 20:47:12 10° W 20:48:37 11° W 20:50:03 10° WNW visible
03 Oct 4.3 18:51:59 10° SSE 18:57:32 81° WSW 19:03:07 10° NNW visible
03 Oct 7.0 20:36:40 10° WSW 20:39:16 13° W 20:41:52 10° WNW visible
04 Oct 4.2 18:42:47 10° SSE 18:48:21 87° ENE 18:53:55 10° NNW visible
04 Oct 6.9 20:26:36 10° SW 20:29:56 16° W 20:33:15 10° NW visible
05 Oct 4.2 18:33:38 10° SSE 18:39:10 75° ENE 18:44:42 10° NNW visible
05 Oct 6.6 20:16:45 10° SW 20:20:36 19° W 20:24:27 10° NW visible
06 Oct 4.2 18:24:31 10° SSE 18:30:00 64° ENE 18:35:28 10° N visible
06 Oct 6.4 20:07:02 10° SW 20:11:17 22° W 20:15:34 10° NW visible
07 Oct 4.3 18:15:27 10° SE 18:20:50 55° ENE 18:26:13 10° N visible
07 Oct 6.2 19:57:24 10° SSW 20:01:59 26° W 20:06:36 10° NW visible
08 Oct 4.5 18:06:25 10° SE 18:11:41 47° ENE 18:16:57 10° N visible
08 Oct 5.9 19:47:51 10° SSW 19:52:42 31° W 19:57:34 10° NNW visible
09 Oct 4.7 17:57:25 10° SE 18:02:33 40° ENE 18:07:39 10° N visible
09 Oct 5.6 19:38:21 10° SSW 19:43:25 36° W 19:48:31 10° NNW visible
